7 * 24
多渠道服务支持
Hi!有什么问题可以问我哦~
STARLINK-36581是美国太空探索技术公司(SpaceX)星链星座的一颗卫星,星链项目旨在构建全球卫星互联网通信系统,为全球提供高速低延迟网络服务。该卫星于2026年1月22日发射升空,入轨后将补充完善星链星座的网络覆盖能力,提升星座整体服务性能,进一步推动全球卫星互联网的部署进程。
美国
(US)
| 数据来源 | 国际轨道数据 |
| 星历时间: | 2026-04-03T23:31:45+0800 8小时前 查看轨道信息 |
| 半长轴: | 6722.326km |
| 偏心率: | 0.000083 |
| 轨道倾角: | 97.283° |
| 近地点辐角 | 31.335° |
| 升交点赤经 | 339.832° |
| 平近点角 | 328.797° |
| 近地点: | 343.631km |
| 远地点: | 344.747km |
| 周期: | 91.420分钟 |
| 每日圈数: | 15.751555 |